Flag for Lithuania Weather past 2 weeks in Kaunas, Lithuania

Now
41 °F

Overcast.


Feels Like: 34 °F
Forecast: 38 / 46 °F
Wind: 12 mph from Southwest

Location: Kaunas

Current Time: Mar 31, 2015 at 2:18:19 AM

Latest Report: Mar 31, 2015 at 1:50 AM


Visibility: N/A

Pressure: 29.24 "Hg

Humidity: 70%

Dew point: 32 °F

Location of KaunasLocation

Historic Weather in Kaunas — Graph

°F

Kaunas temperature yesterday

Maximum temperature yesterday: 50 °F (at 3:50 PM)
Minimum temperature yesterday: 36 °F (at 4:50 AM)
Average temperature yesterday: 40 °F

Past Weeks' High & Low Weather Summary

 TemperatureHumidityPressure
High63 °F (Mar 26, 2:20 PM)93% (Mar 21, 10:20 AM)30.92 "Hg (Mar 21, 10:20 AM)
Low21 °F (Mar 22, 5:20 AM)13% (Mar 18, 3:50 PM)29.03 "Hg (Mar 30, 12:20 PM)
Average40 °F59%30.09 "Hg
* Reported Mar 16 12:20 AM — Mar 31 1:20 AM, Kaunas, Weather by CustomWeather, © 2015

Note: Actual official high and low records may vary slightly from our data, if they occured in-between our weather recording intervals... More about our weather records

Advertising

Kaunas weather history for previous 24 hours

 ConditionsComfort  
Time TempWeatherWind HumidityBarometerVisibility
1:20 AM
Tue, Mar 31
41 °FOvercast.14 mph70%29.21 "HgN/A
12:50 AM41 °FOvercast.13 mph70%29.21 "HgN/A
12:20 AM41 °FPassing clouds.13 mph70%29.21 "HgN/A
11:50 PM
Mon, Mar 30
41 °FPassing clouds.12 mph70%29.21 "HgN/A
11:20 PM43 °FPassing clouds.14 mph66%29.18 "HgN/A
10:50 PM43 °FPassing clouds.12 mph66%29.18 "HgN/A
10:20 PM43 °FPassing clouds.13 mph66%29.18 "HgN/A
9:50 PM43 °FPassing clouds.13 mph66%29.18 "HgN/A
9:20 PM45 °FPassing clouds.12 mph66%29.15 "HgN/A
8:50 PM43 °FBroken clouds.9 mph71%29.15 "HgN/A
8:20 PM43 °FBroken clouds.8 mph71%29.15 "HgN/A
7:50 PM45 °FSprinkles. Broken clouds.13 mph66%29.12 "Hg4 mi
7:20 PM46 °FScattered showers. Broken clouds.14 mph57%29.12 "HgN/A
6:50 PM46 °FScattered showers. Broken clouds.10 mph62%29.09 "HgN/A
6:20 PM46 °FBroken clouds.10 mph71%29.09 "HgN/A
5:50 PM46 °FBroken clouds.9 mph66%29.09 "HgN/A
5:20 PM45 °FSprinkles. Broken clouds.10 mph76%29.09 "Hg6 mi
4:50 PM46 °FSprinkles. Broken clouds.12 mph71%29.06 "Hg3 mi
4:20 PM43 °FSleet. Broken clouds.28 mph76%29.06 "Hg4 mi
3:50 PM50 °FBroken clouds.15 mph62%29.03 "HgN/A
3:20 PM46 °FScattered showers. Broken clouds.16 mph76%29.06 "Hg6 mi
2:50 PM46 °FBroken clouds.12 mph87%29.03 "HgN/A
2:20 PM43 °FCloudy.15 mph93%29.03 "HgN/A
1:50 PM41 °FLight rain. Mostly cloudy.17 mph93%29.03 "Hg5 mi
1:20 PM41 °FLight rain. Low clouds.16 mph87%29.03 "Hg6 mi
12:50 PM39 °FLight rain. Low clouds.17 mph87%29.03 "HgN/A
12:20 PM39 °FLight rain. Low clouds.16 mph87%29.03 "HgN/A
11:50 AM39 °FLight rain. Low clouds.18 mph87%29.06 "Hg6 mi
11:20 AM37 °FLight rain. Low clouds.18 mph87%29.06 "Hg6 mi
10:50 AM37 °FLight rain. Low clouds.18 mph87%29.09 "HgN/A
10:20 AM37 °FLight rain. Low clouds.17 mph87%29.09 "Hg6 mi
9:50 AM37 °FLight rain. Low clouds.20 mph81%29.12 "HgN/A
9:20 AM37 °FLight rain. Low clouds.18 mph87%29.15 "HgN/A
8:50 AM37 °FLight rain. Low clouds.17 mph87%29.15 "Hg6 mi
8:20 AM36 °FLight rain. Low clouds.16 mph87%29.18 "Hg6 mi
7:50 AM36 °FLight rain. Low clouds.14 mph87%29.18 "Hg6 mi
7:20 AM36 °FLight rain. Low clouds.15 mph87%29.21 "Hg4 mi
6:50 AM36 °FLight rain. Low clouds.15 mph87%29.21 "Hg6 mi
6:20 AM36 °FLight rain. Overcast.16 mph87%29.24 "Hg6 mi
5:50 AM36 °FLight rain. Low clouds.15 mph87%29.27 "Hg4 mi
5:20 AM36 °FLight rain. Low clouds.15 mph87%29.27 "Hg4 mi
4:50 AM36 °FLight rain. Low clouds.15 mph87%29.30 "Hg4 mi
4:20 AM37 °FLight rain. Low clouds.14 mph87%29.33 "Hg4 mi
3:50 AM37 °FLight rain. Low clouds.13 mph87%29.33 "HgN/A
3:20 AM37 °FLight rain. Low clouds.14 mph87%29.36 "HgN/A
2:50 AM37 °FLight rain. Low clouds.16 mph87%29.39 "HgN/A
2:20 AM37 °FLight rain. Low clouds.16 mph93%29.39 "Hg6 mi
Weather by CustomWeather, © 2015

See weather overviewHow to use our weather pages